Regional Weather Roundup
Issued by NWS Upton, NY

Current Version | Previous Version | Text Only | Print | Product List | Glossary On
Versions: 1 2 3 4 5 6 7 8 9 10 11 12 13 14 15 16 17 18 19 20 21 22 23 24 25 26 27
000
ASUS41 KOKX 152209
RWROKX

REGIONAL WEATHER ROUNDUP
NATIONAL WEATHER SERVICE NEW YORK NY
600 PM EDT SUN OCT 15 2017

NOTE: "FAIR" INDICATES FEW OR NO CLOUDS BELOW 12,000 FEET WITH NO
SIGNIFICANT WEATHER AND/OR OBSTRUCTIONS TO VISIBILITY.

NYZ071-072-176-178-NJZ106-104-152300-
NEW YORK CITY METRO AREA

CITY           SKY/WX    TMP DP  RH WIND       PRES   REMARKS
Central Park   CLOUDY    70  62  76 W12G23    29.90S
Bronx Bot Gard   N/A     70  59  68 SW14      29.89R
LaGuardia APRT CLOUDY    72  62  71 SW16      29.86F
Kennedy INTL   CLOUDY    71  64  78 SW17      29.88F
Breezy Point     N/A     68 N/A N/A SW9         N/A
Newark/Liberty CLOUDY    70  61  73 SW16G24   29.87F
Teterboro      CLOUDY    72  62  71 SW16G23   29.86S
$$

NYZ177-179-078>081-152300-
LONG ISLAND NEW YORK

CITY           SKY/WX    TMP DP  RH WIND       PRES   REMARKS
Jones Beach      N/A     66 N/A N/A SW7         N/A
Matinecock PT    N/A     70 N/A N/A SW22G28     N/A
Farmingdale    CLOUDY    69  65  86 SW13      29.88F
MacArthur/ISP  MOCLDY    68  66  93 SW16G24   29.87F
Shirley        CLOUDY    70  67  90 S14G23    29.87F
Mt Sinai Harb    N/A    N/A N/A N/A S10         N/A
Westhampton    NOT AVBL
East Hampton   CLOUDY    65  64  94 SW13G23   29.87F
Montauk          N/A     67  65  93 SW9G17    29.89F
$$

NYZ052-065-067-152300-
HUDSON VALLEY

CITY           SKY/WX    TMP DP  RH WIND       PRES   REMARKS
White Plains   MOCLDY    70  61  73 SW8G16    29.85F
Larchmont Harb   N/A     70 N/A N/A S18         N/A
Croton On Huds   N/A     70 N/A N/A SW12G18     N/A
Newburgh       MOCLDY    70  64  83 SW12      29.83F
Montgomery     CLOUDY    69  61  75 SW13G29   29.82S
Poughkeepsie   MOCLDY    72  61  68 S9G18     29.80F
Albany         PTCLDY    71  61  70 S18G32    29.68S
$$

NJZ001-105-106-008-010-013-015-019>022-104-152300-
NEW JERSEY

CITY           SKY/WX    TMP DP  RH WIND       PRES   REMARKS
Newark/Liberty CLOUDY    70  61  73 SW16G24   29.87F
Teterboro      CLOUDY    72  62  71 SW16G23   29.86S
Caldwell       CLOUDY    69  64  84 VRB5      29.87S
Somerville     CLOUDY    69  63  81 VRB6      29.86F
Linden         CLOUDY    70  61  73 CALM      29.88S
Perth Amboy      N/A     70 N/A N/A SW12        N/A
Sussex         CLOUDY    68  62  81 SW10G22   29.84F
Andover          N/A     66  62  87 SW6       29.87F
Trenton        CLOUDY    69  63  81 S9        29.89S
Millville      CLOUDY    72  67  84 VRB5      29.91F
Atlantic City  CLOUDY    71  64  78 S9        29.92F
Wrightstown    MOCLDY    70  63  78 SW13      29.89F
Toms River       N/A     70  64  81 SW8       29.91F
Belmar         CLOUDY    70  63  78 SW8       29.90F
$$

PAZ047>061-062-071-152300-
EASTERN PENNSYLVANIA

CITY           SKY/WX    TMP DP  RH WIND       PRES   REMARKS
Philadelphia   CLOUDY    71  63  75 S10       29.90F
Allentown      CLOUDY    69  61  75 S9        29.86F
Scranton       PTCLDY    69  61  75 CALM      29.82F
$$

CTZ002-004>006-009-010-012-RIZ004-006-007-MAZ004-011-015-152300-
SOUTHERN NEW ENGLAND
 IN CT

CITY           SKY/WX    TMP DP  RH WIND       PRES   REMARKS
Bradley INTL   MOCLDY    71  63  75 S18       29.79F
Hartford       CLOUDY    71  64  78 S10       29.80F
Danbury        CLOUDY    71  62  73 S10       29.85F
Wtrbury/Oxford CLOUDY    68  62  81 VRB6      29.86S
Norwalk Harbor   N/A     70 N/A N/A SW15G21     N/A
Bridgeport     CLOUDY    72  64  76 SW15      29.85S
Meriden        CLOUDY    70  63  78 S9G18     29.83F
New Haven      CLOUDY    70  65  84 SW8       29.85F
Chester        MOCLDY    68  66  94 SW10      29.85S
Groton         MOCLDY    68  65  90 S18       29.84F
Wilimantic     CLOUDY    71  64  78 SW7       29.82F

 IN RI

CITY           SKY/WX    TMP DP  RH WIND       PRES   REMARKS
Providence     MOCLDY    69  65  86 SW14G30   29.83F
Block Island   MOCLDY    65  64  97 SW17      29.88F
Westerly       CLOUDY    68  65  90 S14       29.86F
 IN MA

CITY           SKY/WX    TMP DP  RH WIND       PRES   REMARKS
Boston         PTCLDY    71  63  75 SW17G26   29.76F
Worcester      MOCLDY    66  59  78 SW20      29.79F
Westfield      CLEAR     72  63  73 S14       29.76F
Provincetown   CLOUDY    65  64  97 SW15G22   29.83F
Nantucket      FOG       65  65 100 SW21G26   29.89F VSB 3/4
$$

ANZ330-335-338-340-345-350-353-355-152300-
COASTAL MARINE OBSERVATIONS


STATION/POSITION TIME  SKY/WX   TEMP    WIND        PRES    VSBY  WAVE
                                AIR SEA DIR/SP/G                  HT/PER
                 (UTC)          (F)     (DEG/KT/KT) (MB)    (MI)  (FT/S)
NY HARB ENTRANCE 2150            68 67  200/ 14/ 16 1011.2          4/ 9
20 S FIRE ISLAND 2150            67 65  210/ 17/ 21 1012.0          4/ 8
GREAT SOUTH BAY  2130            67 66  210/ 16/ 21   N/A
15 E BARNEGAT LI 2130               68                N/A           5/ 8
HUDSON CANYON    2150            67 66  220/ 17/ 21 1013.6          5/ 9
KINGS POINT      2148            71 69  260/ 16/ 20 1011.9
EXECUTION ROCKS  2130            72     190/ 17/ 23   N/A
WESTERN LI SOUND 2049            71     220/ 16/ 23   N/A           1/ 3
CENTRAL LI SOUND 2115            70     210/ 16/ 19   N/A           1
EASTERN LI SOUND NOT AVBL
ROBBINS REEF     2148            70     230/ 15/ 19 1012.2
$$


>>>>>>>>>>>>>>>>>>>>>>>>>>>> KEY <<<<<<<<<<<<<<<<<<<<<<<<<<<
>                                                          <
>     SKY/WX - Sky Condition/Present Weather               <
>     TMP    - Temperature in Fahrenheit                   <
>     DP     - Dew Point in Fahrenheit                     <
>     RH     - Relative Humidity in Percent                <
>     WIND   - Direction (from) and Speed in MPH           <
>     PRES   - Mean Sea Level Pressure (inches of Hg)      <
>     WCI    - Wind Chill Index                            <
>     VSB    - VISIBILITY IN MILES                         <
>     HX     - HEAT INDEX                                  <
>     TC     - TEMPERATURE IN CELSIUS                      <
>     VRB    - VARIABLE WIND DIRECTION                     <
>                                                          <
>>>>>>>>>>>>>>>>>>>>>>>>>>>> KEY <<<<<<<<<<<<<<<<<<<<<<<<<<<




USA.gov is the U.S. government's official web portal to all federal, state and local government web resources and services.